DW7287 Weather Reports


Display with metric or nautical units.
time (UTC)temp
F
wind
direction
speed
MPH
gust
MPH
rain 1hr
in
rain 24hr
in
rain mn
in
humidity
%
barometer
mb
20260905213109 81 0 1.0 4.0 0.00 0.58 0.58 72 1012.9
20260905211601 81 0 0.0 2.0 0.00 0.58 0.58 75 1012.8
20260905210109 81 0 0.0 4.0 0.00 0.58 0.58 74 1012.8
20260905204600 82 0 1.0 6.0 0.00 0.58 0.58 71 1013.0
20260905203108 81 288 0.0 7.0 0.00 0.58 0.58 71 1012.8
20260905201607 81 0 0.0 2.0 0.00 0.58 0.58 72 1013.0
20260905200107 81 0 0.0 3.0 0.00 0.58 0.58 73 1013.1
20260905194608 81 302 0.0 3.0 0.00 0.58 0.58 72 1013.2
20260905193106 82 318 0.0 3.0 0.00 0.58 0.58 71 1013.3
20260905191615 82 234 0.0 3.0 0.00 0.58 0.58 70 1013.5
20260905190105 81 0 0.0 3.0 0.00 0.58 0.58 71 1013.9
20260905184611 81 263 1.0 4.0 0.00 0.58 0.58 74 1013.9
20260905183103 80 0 1.0 3.0 0.00 0.58 0.58 73 1014.1
20260905181604 80 0 0.0 3.0 0.00 0.58 0.58 75 1014.3
20260905174614 80 116 0.0 3.0 0.00 0.58 0.58 75 1014.3
20260905173109 80 0 1.0 5.0 0.00 0.58 0.58 74 1014.3
20260905171559 79 0 1.0 6.0 0.00 0.58 0.58 75 1014.5
20260905170106 79 0 1.0 4.0 0.00 0.58 0.58 78 1014.6
20260905164602 78 0 0.0 3.0 0.00 0.58 0.58 80 1015.2
20260905163105 78 0 0.0 3.0 0.00 0.58 0.58 79 1015.7
20260905161604 77 85 1.0 3.0 0.00 0.58 0.58 85 1015.7
20260905160105 74 349 0.0 2.0 0.00 0.58 0.58 88 1015.5
20260905154604 74 318 1.0 3.0 0.00 0.58 0.58 92 1015.8
20260905153102 73 0 0.0 4.0 0.00 0.58 0.58 94 1015.9
20260905151606 72 0 1.0 3.0 0.00 0.58 0.58 97 1015.8
20260905150104 71 0 0.0 4.0 0.00 0.58 0.58 97 1015.7
20260905144600 71 0 0.0 3.0 0.00 0.58 0.58 97 1014.7
20260905143109 71 360 0.0 3.0 0.00 0.58 0.58 97 1013.9
20260905141615 70 360 0.0 2.0 0.01 0.58 0.58 97 1014.2
20260905140106 70 0 0.0 2.0 0.01 0.58 0.58 97 1014.5
20260905134607 70 0 0.0 2.0 0.01 0.58 0.58 97 1014.6
20260905133102 70 0 0.0 2.0 0.01 0.58 0.58 97 1015.1
20260905131608 70 0 0.0 1.0 0.01 0.58 0.57 97 1015.1
20260905130106 69 360 1.0 2.0 0.26 0.58 0.57 96 1015.8
20260905124602 69 360 0.0 2.0 0.36 0.58 0.57 96 1015.3
20260905123101 69 360 1.0 6.0 0.44 0.58 0.57 96 1015.6
20260905121603 69 360 3.0 12.0 0.56 0.57 0.56 96 1016.1
20260905120101 69 360 3.0 10.0 0.31 0.32 0.31 95 1016.2
20260905114637 69 360 1.0 5.0 0.21 0.22 0.21 95 1015.0
20260905113103 70 360 4.0 10.0 0.13 0.14 0.13 96 1015.1
20260905111602 70 360 7.0 14.0 0.00 0.01 0.00 97 1015.0
20260905110100 69 360 2.0 6.0 0.00 0.01 0.00 96 1014.5
20260905104559 69 360 0.0 1.0 0.00 0.01 0.00 96 1013.5
20260905103102 68 0 0.0 0.0 0.00 0.01 0.00 96 1013.5
20260905101603 68 0 0.0 0.0 0.00 0.01 0.00 96 1013.4
20260905100118 68 0 0.0 1.0 0.00 0.01 0.00 96 1013.4
20260905094625 68 0 0.0 1.0 0.00 0.01 0.00 96 1013.3
20260905093102 68 0 0.0 1.0 0.00 0.01 0.00 96 1013.4
20260905091616 68 0 0.0 0.0 0.00 0.01 0.00 96 1013.6
20260905090104 69 0 0.0 0.0 0.00 0.01 0.00 96 1013.4
20260905084607 69 0 0.0 1.0 0.00 0.01 0.00 96 1013.5
20260905083059 69 0 0.0 0.0 0.00 0.01 0.00 96 1013.5
20260905081603 69 0 0.0 0.0 0.00 0.01 0.00 96 1013.5
20260905080100 69 0 0.0 0.0 0.00 0.01 0.00 95 1013.7
20260905074602 69 0 0.0 0.0 0.00 0.01 0.00 95 1013.6
20260905073109 69 0 0.0 1.0 0.00 0.01 0.00 95 1013.7
20260905071601 69 0 0.0 2.0 0.00 0.01 0.00 95 1013.8
20260905070101 69 0 0.0 0.0 0.00 0.01 0.00 95 1014.1
20260905064611 69 0 0.0 0.0 0.00 0.01 0.00 95 1014.3
20260905063113 69 0 0.0 0.0 0.00 0.01 0.00 95 1014.6
20260905061617 70 0 0.0 0.0 0.00 0.01 0.00 95 1014.8
20260905060104 70 0 0.0 0.0 0.00 0.01 0.00 95 1015.1
20260905054603 70 0 0.0 0.0 0.00 0.01 0.00 95 1015.3
20260905053059 70 0 0.0 1.0 0.00 0.01 0.00 95 1015.5
20260905051611 70 0 0.0 0.0 0.00 0.01 0.00 94 1015.7
20260905050108 71 0 0.0 0.0 0.00 0.01 0.00 94 1015.7
20260905044603 71 0 0.0 0.0 0.00 0.01 0.00 94 1015.7
20260905043100 71 0 0.0 0.0 0.00 0.01 0.00 94 1015.8
20260905041603 71 0 0.0 0.0 0.00 0.01 0.00 94 1015.7
20260905040105 71 0 0.0 0.0 0.00 0.01 0.00 94 1015.6
20260905034613 72 0 0.0 1.0 0.00 0.01 0.01 94 1015.6
20260905033110 72 0 0.0 0.0 0.00 0.01 0.01 94 1015.7
20260905031614 72 0 0.0 1.0 0.00 0.01 0.01 94 1015.6
20260905024604 73 360 0.0 1.0 0.00 0.01 0.01 93 1015.3
20260905023137 73 0 0.0 0.0 0.00 0.01 0.01 93 1015.5
20260905021602 73 0 0.0 0.0 0.00 0.01 0.01 92 1015.5
20260905020104 74 0 0.0 1.0 0.00 0.01 0.01 92 1015.5
20260905014557 74 0 0.0 0.0 0.00 0.01 0.01 92 1015.5
20260905013104 74 0 0.0 1.0 0.00 0.01 0.01 92 1015.4
20260905011606 74 0 0.0 1.0 0.00 0.01 0.01 92 1015.3
20260905010059 74 0 0.0 2.0 0.00 0.01 0.01 92 1015.0
20260905004600 75 0 0.0 1.0 0.00 0.01 0.01 92 1014.9
20260905003106 75 0 0.0 2.0 0.00 0.01 0.01 91 1014.6
20260905001610 76 0 0.0 1.0 0.00 0.01 0.01 89 1015.1
20260905000124 76 0 0.0 1.0 0.00 0.01 0.01 88 1015.0
20260904234607 77 0 0.0 3.0 0.00 0.01 0.01 89 1014.5
20260904233104 77 20 0.0 2.0 0.00 0.01 0.01 89 1014.3
20260904231604 78 40 0.0 3.0 0.00 0.01 0.01 87 1014.6
20260904224605 79 0 1.0 2.0 0.00 0.01 0.01 84 1014.8
20260904223107 80 0 0.0 1.0 0.00 0.01 0.01 81 1015.1
20260904221604 80 0 0.0 2.0 0.00 0.01 0.01 80 1015.2
20260904220118 80 0 0.0 2.0 0.00 0.01 0.01 79 1016.0
20260904214556 80 76 0.0 3.0 0.00 0.01 0.01 79 1016.0